Change the Weather History Date:

Wednesday, March 6, 2013

  Actual Average Record
Temperature  
Mean Temperature 48 °F -  
Max Temperature 60 °F 64 °F 84 °F (1955)
Min Temperature 35 °F 39 °F 19 °F (2015)
Degree Days  
Heating Degree Days 18    
Moisture  
Dew Point 22 °F    
Average Humidity 43    
Maximum Humidity 79    
Minimum Humidity 16    
Precipitation  
Precipitation 0.00 in - - ()
Sea Level Pressure  
Sea Level Pressure 30.35 in    
Wind  
Wind Speed 5 mph (North)    
Max Wind Speed 13 mph    
Max Gust Speed 22 mph    
Visibility 10 miles    
Events      
Averages and records for this station are not official NWS values.
T = Trace of Precipitation, MM = Missing Value Source: NWS Daily Summary

Daily Weather History Graph

Daily Weather History Graph

Search for Another Location

Airport or City:

Trip Planner

Search our weather history database for the weather conditions in past years. The results will help you decide how hot, cold, wet, or windy it might be!

Date:

Astronomy

Mar. 06, 2013 Rise Set
Actual Time 6:31 AM CST 6:11 PM CST
Civil Twilight 6:07 AM CST 6:36 PM CST
Nautical Twilight 5:38 AM CST 7:04 PM CST
Astronomical Twilight 5:10 AM CST 7:33 PM CST
Moon 2:27 AM CST (3/6) 1:07 PM CST (3/6)
Length of Visible Light 12h 29m
Length of Day
11h 40m
Waning Crescent, 29% of the Moon is Illuminated
Mar 6
Waning Crescent
Mar 11
New
Mar 19
First Quarter
Mar 27
Full
Apr 2
Last Quarter

Hourly Weather History & Observations

Time (CST) Temp. Windchill Dew Point Humidity Pressure Visibility Wind Dir Wind Speed Gust Speed Precip Events Conditions
12:15 AM 42.1 °F 37.7 °F 22.3 °F 45% 30.32 in 10.0 mi NNW 6.9 mph - N/A   Clear
12:35 AM 41.7 °F 37.3 °F 22.6 °F 47% 30.33 in 10.0 mi NNW 6.9 mph - N/A   Clear
12:55 AM 41.4 °F 38.4 °F 22.1 °F 46% 30.34 in 10.0 mi NNW 4.6 mph - N/A   Clear
1:15 AM 40.8 °F 36.9 °F 22.5 °F 48% 30.33 in 10.0 mi NNW 5.8 mph - N/A   Clear
1:35 AM 40.6 °F 37.5 °F 21.9 °F 47% 30.33 in 10.0 mi NW 4.6 mph - N/A   Clear
1:55 AM 40.3 °F 37.1 °F 21.9 °F 48% 30.33 in 10.0 mi NNW 4.6 mph - N/A   Clear
2:15 AM 39.6 °F 35.4 °F 22.3 °F 50% 30.33 in 10.0 mi NNW 5.8 mph - N/A   Clear
2:35 AM 39.6 °F 36.3 °F 21.9 °F 49% 30.33 in 10.0 mi NW 4.6 mph - N/A   Clear
2:55 AM 39.2 °F 35.9 °F 22.1 °F 50% 30.33 in 10.0 mi NNW 4.6 mph - N/A   Clear
3:15 AM 39.2 °F 37.0 °F 22.1 °F 50% 30.33 in 10.0 mi NW 3.5 mph - N/A   Clear
3:35 AM 38.1 °F 34.6 °F 22.8 °F 54% 30.34 in 10.0 mi NNW 4.6 mph - N/A   Clear
3:55 AM 37.8 °F 35.3 °F 22.8 °F 55% 30.34 in 10.0 mi NW 3.5 mph - N/A   Clear
4:15 AM 37.2 °F 33.6 °F 23.2 °F 57% 30.35 in 10.0 mi NW 4.6 mph - N/A   Clear
4:35 AM 37.2 °F 33.6 °F 23.4 °F 57% 30.36 in 10.0 mi NNW 4.6 mph - N/A   Clear
4:55 AM 37.4 °F 32.8 °F 22.8 °F 56% 30.37 in 10.0 mi NW 5.8 mph - N/A   Clear
5:15 AM 37.4 °F 32.1 °F 23.0 °F 56% 30.37 in 10.0 mi NNW 6.9 mph - N/A   Clear
5:35 AM 36.9 °F 32.2 °F 23.4 °F 58% 30.38 in 10.0 mi NNW 5.8 mph - N/A   Clear
5:55 AM 36.9 °F 32.2 °F 23.0 °F 57% 30.38 in 10.0 mi NNW 5.8 mph - N/A   Clear
6:15 AM 36.5 °F 31.8 °F 23.0 °F 58% 30.38 in 10.0 mi North 5.8 mph - N/A   Clear
6:35 AM 35.8 °F 31.9 °F 23.0 °F 60% 30.38 in 10.0 mi NNW 4.6 mph - N/A   Clear
6:55 AM 35.6 °F 30.7 °F 23.7 °F 62% 30.39 in 10.0 mi NNW 5.8 mph - N/A   Clear
7:15 AM 36.9 °F 32.2 °F 23.2 °F 58% 30.39 in 10.0 mi NNW 5.8 mph - N/A   Clear
7:35 AM 38.5 °F 32.1 °F 22.6 °F 53% 30.40 in 10.0 mi North 9.2 mph - N/A   Clear
7:55 AM 40.1 °F 34.7 °F 22.6 °F 50% 30.41 in 10.0 mi North 8.1 mph - N/A   Clear
8:15 AM 41.0 °F 33.9 °F 21.7 °F 46% 30.42 in 10.0 mi NNW 12.7 mph 21.9 mph N/A   Clear
8:35 AM 42.3 °F 35.5 °F 22.1 °F 45% 30.42 in 10.0 mi North 12.7 mph 18.4 mph N/A   Clear
8:55 AM 43.0 °F 38.8 °F 21.9 °F 43% 30.43 in 10.0 mi NNW 6.9 mph - N/A   Clear
9:15 AM 44.4 °F 40.0 °F 21.2 °F 40% 30.43 in 10.0 mi NNE 8.1 mph - N/A   Clear
9:35 AM 45.0 °F 41.2 °F 21.2 °F 39% 30.42 in 10.0 mi North 6.9 mph - N/A   Clear
9:55 AM 45.9 °F 41.2 °F 20.3 °F 36% 30.42 in 10.0 mi NNW 9.2 mph - N/A   Clear
10:15 AM 47.5 °F - 19.8 °F 33% 30.42 in 10.0 mi North 8.1 mph - N/A   Clear
10:35 AM 48.6 °F - 19.6 °F 32% 30.42 in 10.0 mi NNE 3.5 mph - N/A   Clear
10:55 AM 49.6 °F - 19.9 °F 31% 30.42 in 10.0 mi NNE 6.9 mph - N/A   Clear
11:15 AM 49.8 °F - 18.7 °F 29% 30.42 in 10.0 mi WSW 3.5 mph - N/A   Clear
11:35 AM 51.6 °F - 18.9 °F 28% 30.41 in 10.0 mi North 8.1 mph - N/A   Clear
11:55 AM 52.7 °F - 18.1 °F 26% 30.40 in 10.0 mi North 4.6 mph - N/A   Clear
12:15 PM 54.0 °F - 17.8 °F 24% 30.38 in 10.0 mi NNW 8.1 mph - N/A   Clear
12:35 PM 55.0 °F - 16.3 °F 22% 30.37 in 10.0 mi NNE 6.9 mph - N/A   Clear
12:55 PM 56.5 °F - 16.9 °F 21% 30.35 in 10.0 mi NE 5.8 mph - N/A   Clear
1:15 PM 56.3 °F - 17.4 °F 22% 30.34 in 10.0 mi North 6.9 mph - N/A   Clear
1:55 PM 57.9 °F - 16.0 °F 19% 30.32 in 10.0 mi NNW 9.2 mph - N/A   Clear
2:15 PM 58.1 °F - 14.2 °F 18% 30.32 in 10.0 mi NNW 4.6 mph - N/A   Clear
2:35 PM 58.8 °F - 15.4 °F 18% 30.31 in 10.0 mi NW 4.6 mph 9.2 mph N/A   Clear
2:55 PM 59.9 °F - 15.4 °F 18% 30.30 in 10.0 mi NNE 9.2 mph - N/A   Clear
3:15 PM 59.4 °F - 14.9 °F 18% 30.31 in 10.0 mi ENE 4.6 mph - N/A   Clear
3:35 PM 60.4 °F - 14.0 °F 16% 30.31 in 10.0 mi NNE 6.9 mph - N/A   Clear
3:55 PM 59.5 °F - 14.0 °F 17% 30.30 in 10.0 mi NE 4.6 mph - N/A   Clear
4:15 PM 60.1 °F - 15.8 °F 18% 30.30 in 10.0 mi WNW 5.8 mph - N/A   Clear
4:35 PM 59.5 °F - 15.3 °F 18% 30.29 in 10.0 mi North 6.9 mph - N/A   Clear
4:55 PM 59.2 °F - 14.5 °F 17% 30.29 in 10.0 mi NE 4.6 mph - N/A   Clear
5:15 PM 58.6 °F - 15.4 °F 18% 30.30 in 10.0 mi NNE 6.9 mph - N/A   Clear
5:35 PM 57.0 °F - 19.2 °F 23% 30.31 in 10.0 mi NE 4.6 mph - N/A   Clear
5:55 PM 54.9 °F - 20.5 °F 26% 30.31 in 10.0 mi NE 4.6 mph - N/A   Clear
6:15 PM 52.3 °F - 26.2 °F 36% 30.31 in 10.0 mi Calm Calm - N/A   Clear
6:35 PM 47.8 °F - 28.6 °F 47% 30.31 in 10.0 mi Calm Calm - N/A   Clear
6:55 PM 45.3 °F - 30.4 °F 56% 30.31 in 10.0 mi Calm Calm - N/A   Clear
7:15 PM 43.7 °F - 30.7 °F 60% 30.31 in 10.0 mi Calm Calm - N/A   Clear
7:35 PM 48.0 °F - 26.6 °F 43% 30.31 in 10.0 mi Calm Calm - N/A   Clear
7:55 PM 44.1 °F - 30.9 °F 60% 30.31 in 10.0 mi Calm Calm - N/A   Clear
8:15 PM 43.3 °F 41.7 °F 30.7 °F 61% 30.31 in 10.0 mi ENE 3.5 mph - N/A   Clear
8:35 PM 44.6 °F 42.2 °F 28.4 °F 53% 30.31 in 10.0 mi East 4.6 mph - N/A   Clear
8:55 PM 44.2 °F 42.7 °F 29.5 °F 56% 30.31 in 10.0 mi East 3.5 mph - N/A   Clear
9:15 PM 43.3 °F 41.7 °F 30.2 °F 60% 30.32 in 10.0 mi ESE 3.5 mph - N/A   Clear
9:35 PM 42.8 °F 41.1 °F 30.7 °F 62% 30.33 in 10.0 mi East 3.5 mph - N/A   Clear
9:55 PM 43.0 °F - 30.7 °F 62% 30.33 in 10.0 mi Calm Calm - N/A   Clear
10:35 PM 43.0 °F 41.3 °F 30.7 °F 62% 30.32 in 10.0 mi East 3.5 mph - N/A   Clear
10:55 PM 42.4 °F 40.7 °F 30.6 °F 63% 30.32 in 10.0 mi East 3.5 mph - N/A   Clear
11:15 PM 42.4 °F - 31.1 °F 64% 30.33 in 10.0 mi Calm Calm - N/A   Clear
11:35 PM 41.7 °F - 31.8 °F 68% 30.32 in 10.0 mi Calm Calm - N/A   Clear
11:55 PM 39.2 °F - 33.1 °F 79% 30.33 in 10.0 mi Calm Calm - N/A   Clear